Location: Unspecified
(0.0000°N, 0.0000°E)
Time: 18:07:19
(UTC+00:00)

N. Korean satellite - Pass Details

Date: 21 March 2019
Orbit: 457 x 508 km, 97.2° (Epoch: 22 May)

Event Time Altitude Azimuth Distance (km) Brightness Sun altitude
Rises 05:17:36 0° 29° (NNE) 2,547 10.6 -12.4°
Reaches altitude 10° 05:19:50 10° 41° (NE) 1,678 9.9 -11.9°
Maximum altitude 05:22:58 28° 101° (ESE) 958 9.0 -11.1°
Drops below altitude 10° 05:26:10 10° 161° (SSE) 1,708 9.6 -10.3°
Sets 05:28:28 0° 173° (S) 2,601 10.4 -9.7°
